| time (UTC) | temp F | wind direction | speed knots | gust knots | rain 1hr in | rain 24hr in | rain mn in | humidity % | barometer mb |
| 20260906224027 | 71 | 69 | 0.9 | 4.3 | 0.00 | 0.00 | 0.00 | 64 | 1015.3 |
| 20260906223536 | 72 | 85 | 1.7 | 4.3 | 0.00 | 0.00 | 0.00 | 64 | 1015.3 |
| 20260906223217 | 72 | 130 | 0.0 | 1.7 | 0.00 | 0.00 | 0.00 | 64 | 1015.3 |
| 20260906222525 | 72 | 130 | 0.9 | 2.6 | 0.00 | 0.00 | 0.00 | 64 | 1015.3 |
| 20260906222041 | 71 | 79 | 0.9 | 2.6 | 0.00 | 0.00 | 0.00 | 64 | 1015.4 |
| 20260906221732 | 72 | 87 | 0.9 | 3.5 | 0.00 | 0.00 | 0.00 | 64 | 1015.3 |
| 20260906221029 | 72 | 84 | 0.9 | 4.3 | 0.00 | 0.00 | 0.00 | 64 | 1015.4 |
| 20260906220521 | 72 | 83 | 0.9 | 4.3 | 0.00 | 0.00 | 0.00 | 63 | 1015.4 |
| 20260906220154 | 72 | 85 | 1.7 | 4.3 | 0.00 | 0.00 | 0.00 | 62 | 1015.5 |
| 20260906215520 | 73 | 188 | 0.0 | 3.5 | 0.00 | 0.00 | 0.00 | 62 | 1015.4 |
| 20260906215023 | 72 | 117 | 1.7 | 3.5 | 0.00 | 0.00 | 0.00 | 63 | 1015.4 |
| 20260906214637 | 71 | 202 | 0.0 | 2.6 | 0.00 | 0.00 | 0.00 | 65 | 1015.4 |
| 20260906214027 | 71 | 94 | 0.0 | 1.7 | 0.00 | 0.00 | 0.00 | 66 | 1015.4 |
| 20260906213536 | 70 | 63 | 0.0 | 2.6 | 0.00 | 0.00 | 0.00 | 66 | 1015.4 |
| 20260906213137 | 70 | 62 | 0.0 | 3.5 | 0.00 | 0.00 | 0.00 | 66 | 1015.5 |
| 20260906212539 | 70 | 92 | 1.7 | 3.5 | 0.00 | 0.00 | 0.00 | 67 | 1015.5 |
| 20260906212024 | 70 | 69 | 0.9 | 3.5 | 0.00 | 0.00 | 0.00 | 66 | 1015.5 |
| 20260906211728 | 70 | 82 | 1.7 | 3.5 | 0.00 | 0.00 | 0.00 | 66 | 1015.6 |
| 20260906211044 | 71 | 52 | 0.9 | 3.5 | 0.00 | 0.00 | 0.00 | 66 | 1015.7 |
| 20260906210534 | 71 | 104 | 0.9 | 3.5 | 0.00 | 0.00 | 0.00 | 67 | 1015.8 |
| 20260906210130 | 70 | 58 | 0.0 | 6.1 | 0.00 | 0.00 | 0.00 | 67 | 1015.8 |
| 20260906205531 | 70 | 88 | 3.5 | 6.1 | 0.00 | 0.00 | 0.00 | 67 | 1015.8 |
| 20260906205029 | 70 | 54 | 1.7 | 7.0 | 0.00 | 0.00 | 0.00 | 68 | 1016.0 |
| 20260906204635 | 70 | 119 | 3.5 | 7.0 | 0.00 | 0.00 | 0.00 | 68 | 1015.8 |
| 20260906204033 | 69 | 109 | 1.7 | 7.8 | 0.00 | 0.00 | 0.00 | 70 | 1015.8 |
| 20260906203525 | 69 | 71 | 4.3 | 7.8 | 0.00 | 0.00 | 0.00 | 69 | 1015.8 |
| 20260906203158 | 69 | 92 | 2.6 | 7.0 | 0.00 | 0.00 | 0.00 | 70 | 1015.8 |
| 20260906202523 | 69 | 124 | 1.7 | 7.0 | 0.00 | 0.00 | 0.00 | 70 | 1016.0 |
| 20260906202030 | 69 | 52 | 1.7 | 8.7 | 0.00 | 0.00 | 0.00 | 70 | 1016.0 |
| 20260906201719 | 69 | 94 | 2.6 | 8.7 | 0.00 | 0.00 | 0.00 | 70 | 1016.0 |
| 20260906201026 | 68 | 51 | 2.6 | 7.8 | 0.00 | 0.00 | 0.00 | 71 | 1015.9 |
| 20260906200524 | 68 | 94 | 4.3 | 7.8 | 0.00 | 0.00 | 0.00 | 71 | 1016.1 |
| 20260906200123 | 68 | 74 | 4.3 | 8.7 | 0.00 | 0.00 | 0.00 | 71 | 1016.0 |
| 20260906195540 | 68 | 67 | 5.2 | 7.8 | 0.00 | 0.00 | 0.00 | 70 | 1016.0 |
| 20260906195041 | 68 | 81 | 4.3 | 7.8 | 0.00 | 0.00 | 0.00 | 71 | 1016.2 |
| 20260906194650 | 67 | 67 | 3.5 | 8.7 | 0.00 | 0.00 | 0.00 | 72 | 1016.3 |
| 20260906194041 | 66 | 53 | 4.3 | 8.7 | 0.00 | 0.00 | 0.00 | 73 | 1016.4 |
| 20260906193523 | 66 | 63 | 3.5 | 8.7 | 0.00 | 0.00 | 0.00 | 72 | 1016.5 |
| 20260906193213 | 66 | 10 | 2.6 | 9.6 | 0.00 | 0.00 | 0.00 | 72 | 1016.6 |
| 20260906192545 | 65 | 65 | 1.7 | 9.6 | 0.00 | 0.00 | 0.00 | 74 | 1016.6 |
| 20260906192024 | 65 | 360 | 1.7 | 8.7 | 0.00 | 0.00 | 0.00 | 74 | 1016.7 |
| 20260906191620 | 64 | 62 | 1.7 | 12.2 | 0.00 | 0.00 | 0.00 | 75 | 1016.8 |
| 20260906191045 | 64 | 38 | 5.2 | 12.2 | 0.00 | 0.00 | 0.00 | 76 | 1016.7 |
| 20260906190544 | 63 | 30 | 4.3 | 11.3 | 0.00 | 0.00 | 0.00 | 76 | 1016.8 |
| 20260906190220 | 63 | 80 | 3.5 | 11.3 | 0.00 | 0.00 | 0.00 | 76 | 1017.0 |
| 20260906185539 | 63 | 360 | 4.3 | 11.3 | 0.00 | 0.00 | 0.00 | 77 | 1017.0 |
| 20260906185031 | 62 | 352 | 7.0 | 11.3 | 0.00 | 0.00 | 0.00 | 79 | 1017.0 |
| 20260906184700 | 61 | 352 | 6.1 | 12.2 | 0.00 | 0.00 | 0.00 | 80 | 1017.2 |
| 20260906184041 | 61 | 5 | 7.8 | 12.2 | 0.00 | 0.00 | 0.00 | 80 | 1017.3 |
| 20260906183536 | 60 | 346 | 7.8 | 12.2 | 0.00 | 0.00 | 0.00 | 81 | 1017.3 |
| 20260906183218 | 60 | 30 | 8.7 | 13.9 | 0.00 | 0.00 | 0.00 | 82 | 1017.4 |
| 20260906182531 | 60 | 360 | 5.2 | 13.0 | 0.00 | 0.00 | 0.00 | 83 | 1017.5 |
| 20260906182039 | 59 | 352 | 7.0 | 13.0 | 0.00 | 0.00 | 0.00 | 84 | 1017.6 |
| 20260906181657 | 59 | 350 | 7.0 | 13.0 | 0.00 | 0.00 | 0.00 | 86 | 1017.7 |
| 20260906181027 | 58 | 347 | 8.7 | 13.9 | 0.00 | 0.00 | 0.00 | 87 | 1017.7 |
| 20260906180524 | 57 | 336 | 7.8 | 14.8 | 0.00 | 0.00 | 0.00 | 88 | 1017.9 |
| 20260906180228 | 57 | 352 | 7.8 | 14.8 | 0.00 | 0.00 | 0.00 | 89 | 1017.8 |
| 20260906175531 | 57 | 25 | 7.8 | 13.9 | 0.00 | 0.00 | 0.00 | 89 | 1018.0 |
| 20260906175033 | 57 | 9 | 9.6 | 15.6 | 0.00 | 0.00 | 0.00 | 89 | 1018.0 |
| 20260906174719 | 58 | 15 | 11.3 | 15.6 | 0.00 | 0.00 | 0.00 | 87 | 1018.2 |
| 20260906174024 | 58 | 352 | 9.6 | 15.6 | 0.00 | 0.00 | 0.00 | 87 | 1018.3 |
| 20260906173539 | 60 | 352 | 10.4 | 13.0 | 0.00 | 0.00 | 0.00 | 84 | 1018.2 |
| 20260906173219 | 61 | 20 | 7.0 | 12.2 | 0.00 | 0.00 | 0.00 | 81 | 1018.2 |
| 20260906172548 | 62 | 360 | 4.3 | 11.3 | 0.00 | 0.00 | 0.00 | 80 | 1018.1 |
| 20260906172041 | 63 | 344 | 5.2 | 9.6 | 0.00 | 0.00 | 0.00 | 80 | 1018.2 |
| 20260906171713 | 63 | 21 | 2.6 | 7.0 | 0.00 | 0.00 | 0.00 | 80 | 1018.1 |
| 20260906171043 | 63 | 5 | 0.9 | 3.5 | 0.00 | 0.00 | 0.00 | 80 | 1018.2 |
| 20260906170542 | 63 | 70 | 0.9 | 5.2 | 0.00 | 0.00 | 0.00 | 80 | 1018.2 |
| 20260906170137 | 63 | 50 | 1.7 | 5.2 | 0.00 | 0.00 | 0.00 | 80 | 1018.2 |
| 20260906165539 | 63 | 63 | 0.9 | 5.2 | 0.00 | 0.00 | 0.00 | 80 | 1018.2 |
| 20260906165025 | 63 | 22 | 1.7 | 5.2 | 0.00 | 0.00 | 0.00 | 80 | 1018.2 |
| 20260906164702 | 63 | 65 | 0.9 | 3.5 | 0.00 | 0.00 | 0.00 | 80 | 1018.3 |
| 20260906164024 | 63 | 63 | 0.9 | 2.6 | 0.00 | 0.00 | 0.00 | 80 | 1018.3 |
| 20260906163525 | 63 | 76 | 0.9 | 2.6 | 0.00 | 0.00 | 0.00 | 80 | 1018.3 |
| 20260906163223 | 63 | 33 | 0.9 | 2.6 | 0.00 | 0.00 | 0.00 | 81 | 1018.4 |
| 20260906162534 | 62 | 89 | 0.0 | 6.1 | 0.00 | 0.00 | 0.00 | 81 | 1018.3 |
| 20260906162029 | 62 | 89 | 0.9 | 6.1 | 0.00 | 0.00 | 0.00 | 80 | 1018.4 |
| 20260906161624 | 62 | 88 | 1.7 | 6.1 | 0.00 | 0.00 | 0.00 | 80 | 1018.4 |
| 20260906161037 | 62 | 120 | 1.7 | 6.1 | 0.00 | 0.00 | 0.00 | 82 | 1018.2 |
| 20260906160523 | 62 | 97 | 2.6 | 6.1 | 0.00 | 0.00 | 0.00 | 82 | 1018.2 |
| 20260906160236 | 61 | 113 | 2.6 | 5.2 | 0.00 | 0.00 | 0.00 | 82 | 1018.2 |
| 20260906155530 | 61 | 97 | 3.5 | 5.2 | 0.00 | 0.00 | 0.00 | 82 | 1018.1 |
| 20260906155032 | 61 | 80 | 2.6 | 5.2 | 0.00 | 0.00 | 0.00 | 83 | 1018.3 |
| 20260906154729 | 60 | 88 | 1.7 | 4.3 | 0.00 | 0.00 | 0.00 | 83 | 1018.3 |
| 20260906154044 | 60 | 82 | 2.6 | 4.3 | 0.00 | 0.00 | 0.00 | 83 | 1018.4 |
| 20260906153535 | 60 | 102 | 1.7 | 3.5 | 0.00 | 0.00 | 0.00 | 83 | 1018.6 |
| 20260906153226 | 60 | 64 | 0.0 | 4.3 | 0.00 | 0.00 | 0.00 | 84 | 1018.6 |
| 20260906152546 | 60 | 84 | 0.0 | 4.3 | 0.00 | 0.00 | 0.00 | 84 | 1018.7 |
| 20260906152045 | 60 | 68 | 0.0 | 4.3 | 0.00 | 0.00 | 0.00 | 84 | 1018.6 |
| 20260906151718 | 60 | 70 | 1.7 | 4.3 | 0.00 | 0.00 | 0.00 | 84 | 1018.7 |
| 20260906151048 | 60 | 65 | 1.7 | 5.2 | 0.00 | 0.00 | 0.00 | 84 | 1018.7 |
| 20260906150523 | 60 | 79 | 2.6 | 5.2 | 0.00 | 0.00 | 0.00 | 84 | 1018.6 |
| 20260906150228 | 60 | 80 | 1.7 | 4.3 | 0.00 | 0.00 | 0.00 | 84 | 1018.7 |
| 20260906145531 | 60 | 94 | 1.7 | 5.2 | 0.00 | 0.00 | 0.00 | 85 | 1018.7 |
| 20260906145021 | 60 | 84 | 1.7 | 5.2 | 0.00 | 0.00 | 0.00 | 85 | 1018.9 |
| 20260906144721 | 60 | 63 | 2.6 | 5.2 | 0.00 | 0.00 | 0.00 | 85 | 1018.7 |
| 20260906144039 | 60 | 84 | 0.9 | 5.2 | 0.00 | 0.00 | 0.00 | 85 | 1019.0 |
| 20260906143526 | 60 | 57 | 1.7 | 7.8 | 0.00 | 0.00 | 0.00 | 85 | 1019.0 |
| 20260906143147 | 59 | 67 | 3.5 | 7.8 | 0.00 | 0.00 | 0.00 | 85 | 1018.8 |
| 20260906142527 | 59 | 65 | 2.6 | 5.2 | 0.00 | 0.00 | 0.00 | 85 | 1019.1 |
| 20260906142042 | 59 | 60 | 2.6 | 5.2 | 0.00 | 0.00 | 0.00 | 86 | 1019.3 |
| 20260906141619 | 59 | 78 | 1.7 | 3.5 | 0.00 | 0.00 | 0.00 | 86 | 1019.4 |
| 20260906141036 | 59 | 71 | 0.9 | 3.5 | 0.00 | 0.00 | 0.00 | 86 | 1019.2 |
| 20260906140542 | 59 | 18 | 0.9 | 2.6 | 0.00 | 0.00 | 0.00 | 86 | 1019.1 |
| 20260906140253 | 58 | 21 | 0.0 | 3.5 | 0.00 | 0.00 | 0.00 | 86 | 1018.8 |
| 20260906135528 | 58 | 20 | 0.9 | 4.3 | 0.00 | 0.00 | 0.00 | 86 | 1019.0 |
| 20260906135027 | 58 | 31 | 0.9 | 4.3 | 0.00 | 0.00 | 0.00 | 86 | 1018.9 |
| 20260906134718 | 58 | 336 | 0.9 | 5.2 | 0.00 | 0.00 | 0.00 | 86 | 1019.0 |
| 20260906134039 | 58 | 11 | 0.9 | 5.2 | 0.00 | 0.00 | 0.00 | 86 | 1018.8 |
| 20260906133527 | 58 | 9 | 1.7 | 3.5 | 0.00 | 0.00 | 0.00 | 85 | 1018.9 |
| 20260906133121 | 58 | 12 | 0.9 | 1.7 | 0.00 | 0.00 | 0.00 | 85 | 1019.2 |
| 20260906132532 | 58 | 19 | 0.0 | 1.7 | 0.00 | 0.00 | 0.00 | 85 | 1019.1 |
| 20260906132042 | 57 | 19 | 0.0 | 2.6 | 0.00 | 0.00 | 0.00 | 85 | 1019.0 |
| 20260906131732 | 57 | 19 | 0.9 | 2.6 | 0.00 | 0.00 | 0.00 | 85 | 1018.8 |
| 20260906131042 | 57 | 22 | 0.0 | 2.6 | 0.00 | 0.00 | 0.00 | 85 | 1018.7 |
| 20260906130539 | 57 | 360 | 0.9 | 2.6 | 0.00 | 0.00 | 0.00 | 85 | 1018.8 |
| 20260906130250 | 57 | 5 | 0.0 | 2.6 | 0.00 | 0.00 | 0.00 | 85 | 1018.8 |
| 20260906125547 | 57 | 46 | 0.9 | 3.5 | 0.00 | 0.00 | 0.00 | 85 | 1018.8 |
| 20260906125031 | 57 | 36 | 0.9 | 3.5 | 0.00 | 0.00 | 0.00 | 85 | 1018.8 |
| 20260906124756 | 57 | 29 | 0.9 | 1.7 | 0.00 | 0.00 | 0.00 | 85 | 1018.9 |
| 20260906124039 | 57 | 62 | 0.0 | 2.6 | 0.00 | 0.00 | 0.00 | 85 | 1019.0 |
| 20260906123531 | 57 | 59 | 0.9 | 2.6 | 0.00 | 0.00 | 0.00 | 85 | 1018.9 |
| 20260906123230 | 57 | 30 | 0.0 | 2.6 | 0.00 | 0.00 | 0.00 | 85 | 1018.9 |
| 20260906122525 | 57 | 65 | 0.0 | 2.6 | 0.00 | 0.00 | 0.00 | 85 | 1018.9 |
| 20260906122030 | 57 | 65 | 0.0 | 2.6 | 0.00 | 0.00 | 0.00 | 85 | 1018.9 |
| 20260906121733 | 57 | 65 | 0.0 | 1.7 | 0.00 | 0.00 | 0.00 | 85 | 1018.9 |
| 20260906121038 | 57 | 65 | 0.0 | 1.7 | 0.00 | 0.00 | 0.00 | 85 | 1019.2 |
| 20260906120541 | 57 | 65 | 0.0 | 1.7 | 0.00 | 0.00 | 0.00 | 85 | 1019.2 |
| 20260906120237 | 57 | 65 | 0.0 | 4.3 | 0.00 | 0.00 | 0.00 | 85 | 1019.1 |
| 20260906115523 | 57 | 66 | 0.9 | 4.3 | 0.00 | 0.00 | 0.00 | 85 | 1019.1 |
| 20260906115039 | 57 | 49 | 0.9 | 4.3 | 0.00 | 0.00 | 0.00 | 85 | 1019.1 |
| 20260906114648 | 57 | 19 | 2.6 | 4.3 | 0.00 | 0.00 | 0.00 | 85 | 1019.2 |
| 20260906114027 | 57 | 360 | 1.7 | 5.2 | 0.00 | 0.00 | 0.00 | 85 | 1019.1 |
| 20260906113536 | 57 | 13 | 2.6 | 5.2 | 0.00 | 0.00 | 0.00 | 86 | 1019.1 |
| 20260906113218 | 57 | 13 | 2.6 | 6.1 | 0.00 | 0.00 | 0.00 | 86 | 1019.1 |
| 20260906112529 | 57 | 360 | 2.6 | 7.0 | 0.00 | 0.00 | 0.00 | 86 | 1018.9 |
| 20260906112032 | 57 | 5 | 2.6 | 7.8 | 0.00 | 0.00 | 0.00 | 86 | 1018.8 |
| 20260906111628 | 57 | 20 | 3.5 | 7.8 | 0.00 | 0.00 | 0.00 | 86 | 1018.9 |
| 20260906111024 | 56 | 11 | 3.5 | 8.7 | 0.00 | 0.00 | 0.00 | 86 | 1018.9 |
| 20260906110543 | 56 | 352 | 2.6 | 8.7 | 0.00 | 0.00 | 0.00 | 86 | 1019.0 |
| 20260906110239 | 56 | 348 | 4.3 | 7.8 | 0.00 | 0.00 | 0.00 | 86 | 1019.1 |
| 20260906105536 | 56 | 5 | 4.3 | 8.7 | 0.00 | 0.00 | 0.00 | 87 | 1019.3 |
| 20260906105045 | 56 | 5 | 5.2 | 8.7 | 0.00 | 0.00 | 0.00 | 86 | 1019.1 |
| 20260906104736 | 56 | 352 | 5.2 | 8.7 | 0.00 | 0.00 | 0.00 | 86 | 1019.1 |
| 20260906104033 | 56 | 21 | 3.5 | 8.7 | 0.00 | 0.00 | 0.00 | 86 | 1018.8 |
| 20260906103523 | 56 | 11 | 3.5 | 8.7 | 0.00 | 0.00 | 0.00 | 86 | 1018.9 |
| 20260906103234 | 56 | 360 | 2.6 | 9.6 | 0.00 | 0.00 | 0.00 | 86 | 1019.1 |
| 20260906102536 | 56 | 49 | 5.2 | 9.6 | 0.00 | 0.00 | 0.00 | 86 | 1019.2 |
| 20260906102046 | 56 | 40 | 3.5 | 7.8 | 0.00 | 0.00 | 0.00 | 86 | 1019.2 |
| 20260906101741 | 56 | 12 | 3.5 | 7.8 | 0.00 | 0.00 | 0.00 | 86 | 1019.1 |
| 20260906101031 | 56 | 10 | 1.7 | 9.6 | 0.00 | 0.00 | 0.00 | 86 | 1019.2 |
| 20260906100538 | 56 | 360 | 5.2 | 9.6 | 0.00 | 0.00 | 0.00 | 86 | 1019.3 |
| 20260906100217 | 55 | 5 | 4.3 | 8.7 | 0.00 | 0.00 | 0.00 | 86 | 1019.5 |
| 20260906095546 | 55 | 346 | 4.3 | 9.6 | 0.00 | 0.00 | 0.00 | 87 | 1019.4 |
| 20260906095038 | 55 | 13 | 5.2 | 9.6 | 0.00 | 0.00 | 0.00 | 87 | 1019.4 |
| 20260906094717 | 55 | 15 | 5.2 | 9.6 | 0.00 | 0.00 | 0.00 | 87 | 1019.4 |
| 20260906094024 | 55 | 347 | 6.1 | 9.6 | 0.00 | 0.00 | 0.00 | 87 | 1019.3 |
| 20260906093527 | 55 | 352 | 6.1 | 9.6 | 0.00 | 0.00 | 0.00 | 87 | 1019.2 |
| 20260906093143 | 54 | 360 | 5.2 | 9.6 | 0.00 | 0.00 | 0.00 | 87 | 1019.3 |
| 20260906092530 | 54 | 352 | 6.1 | 9.6 | 0.00 | 0.00 | 0.00 | 87 | 1019.2 |
| 20260906092042 | 54 | 352 | 5.2 | 9.6 | 0.00 | 0.00 | 0.00 | 88 | 1019.3 |
| 20260906091725 | 54 | 23 | 5.2 | 8.7 | 0.00 | 0.00 | 0.00 | 87 | 1019.3 |
| 20260906091037 | 53 | 20 | 4.3 | 7.8 | 0.00 | 0.00 | 0.00 | 87 | 1019.3 |
| 20260906090536 | 53 | 5 | 3.5 | 7.0 | 0.00 | 0.00 | 0.00 | 87 | 1019.2 |
| 20260906090232 | 54 | 10 | 2.6 | 5.2 | 0.00 | 0.00 | 0.00 | 86 | 1019.3 |
| 20260906085531 | 54 | 360 | 1.7 | 3.5 | 0.00 | 0.00 | 0.00 | 86 | 1019.3 |
| 20260906085040 | 54 | 5 | 1.7 | 3.5 | 0.00 | 0.00 | 0.00 | 86 | 1019.3 |
| 20260906084648 | 54 | 5 | 1.7 | 2.6 | 0.00 | 0.00 | 0.00 | 85 | 1019.5 |
| 20260906084048 | 55 | 75 | 0.0 | 4.3 | 0.00 | 0.00 | 0.00 | 85 | 1019.5 |
| 20260906083530 | 55 | 352 | 0.9 | 5.2 | 0.00 | 0.00 | 0.00 | 85 | 1019.3 |
| 20260906083218 | 55 | 5 | 2.6 | 5.2 | 0.00 | 0.00 | 0.00 | 85 | 1019.2 |
| 20260906082539 | 55 | 14 | 2.6 | 7.0 | 0.00 | 0.00 | 0.00 | 84 | 1019.4 |
| 20260906082039 | 55 | 5 | 2.6 | 7.0 | 0.00 | 0.00 | 0.00 | 84 | 1019.4 |
| 20260906081727 | 55 | 360 | 3.5 | 7.8 | 0.00 | 0.00 | 0.00 | 84 | 1019.4 |
| 20260906081031 | 55 | 9 | 4.3 | 8.7 | 0.00 | 0.00 | 0.00 | 84 | 1019.6 |
| 20260906080532 | 55 | 350 | 5.2 | 8.7 | 0.00 | 0.00 | 0.00 | 84 | 1019.6 |
| 20260906080138 | 55 | 5 | 5.2 | 7.8 | 0.00 | 0.00 | 0.00 | 83 | 1019.6 |
| 20260906075540 | 56 | 360 | 3.5 | 7.8 | 0.00 | 0.00 | 0.00 | 83 | 1019.8 |
| 20260906075042 | 56 | 360 | 1.7 | 7.0 | 0.00 | 0.00 | 0.00 | 83 | 1019.9 |
| 20260906074654 | 56 | 360 | 2.6 | 8.7 | 0.00 | 0.00 | 0.00 | 82 | 1020.0 |
| 20260906074044 | 56 | 343 | 4.3 | 8.7 | 0.00 | 0.00 | 0.00 | 82 | 1019.9 |
| 20260906073546 | 56 | 5 | 4.3 | 7.8 | 0.00 | 0.00 | 0.00 | 81 | 1020.0 |
| 20260906073219 | 56 | 360 | 2.6 | 7.0 | 0.00 | 0.00 | 0.00 | 81 | 1020.1 |
| 20260906072530 | 56 | 352 | 2.6 | 7.0 | 0.00 | 0.00 | 0.00 | 81 | 1020.3 |
| 20260906072037 | 57 | 348 | 1.7 | 8.7 | 0.00 | 0.00 | 0.00 | 81 | 1020.3 |
| 20260906071707 | 57 | 19 | 4.3 | 9.6 | 0.00 | 0.00 | 0.00 | 81 | 1020.5 |
| 20260906071025 | 57 | 360 | 5.2 | 9.6 | 0.00 | 0.00 | 0.00 | 81 | 1020.4 |
| 20260906070542 | 57 | 5 | 5.2 | 8.7 | 0.00 | 0.00 | 0.00 | 81 | 1020.6 |
| 20260906070224 | 57 | 13 | 5.2 | 8.7 | 0.00 | 0.00 | 0.00 | 81 | 1020.7 |
| 20260906065545 | 57 | 5 | 4.3 | 7.8 | 0.00 | 0.00 | 0.00 | 80 | 1020.7 |
| 20260906065028 | 57 | 14 | 3.5 | 7.8 | 0.00 | 0.00 | 0.00 | 80 | 1020.5 |
| 20260906064710 | 57 | 326 | 2.6 | 8.7 | 0.00 | 0.00 | 0.00 | 80 | 1020.5 |
| 20260906064027 | 57 | 352 | 4.3 | 8.7 | 0.00 | 0.00 | 0.00 | 79 | 1020.5 |
| 20260906063538 | 57 | 5 | 5.2 | 8.7 | 0.00 | 0.00 | 0.00 | 79 | 1020.5 |
| 20260906063139 | 57 | 360 | 6.1 | 9.6 | 0.00 | 0.00 | 0.00 | 79 | 1020.6 |
| 20260906062536 | 57 | 5 | 6.1 | 9.6 | 0.00 | 0.00 | 0.00 | 79 | 1020.7 |
| 20260906062046 | 57 | 360 | 4.3 | 7.8 | 0.00 | 0.00 | 0.00 | 78 | 1020.7 |
| 20260906061715 | 58 | 350 | 4.3 | 8.7 | 0.00 | 0.00 | 0.00 | 78 | 1020.8 |
| 20260906061042 | 58 | 351 | 5.2 | 8.7 | 0.00 | 0.00 | 0.00 | 78 | 1020.6 |
| 20260906060524 | 58 | 5 | 3.5 | 7.0 | 0.00 | 0.00 | 0.00 | 78 | 1020.8 |
| 20260906060215 | 58 | 360 | 2.6 | 8.7 | 0.00 | 0.00 | 0.00 | 78 | 1020.9 |
| 20260906055517 | 58 | 352 | 4.3 | 8.7 | 0.00 | 0.00 | 0.00 | 77 | 1020.8 |
| 20260906055026 | 58 | 346 | 5.2 | 7.8 | 0.00 | 0.00 | 0.00 | 77 | 1020.8 |
| 20260906054659 | 58 | 15 | 4.3 | 7.8 | 0.00 | 0.00 | 0.00 | 76 | 1020.6 |
| 20260906054033 | 58 | 348 | 3.5 | 7.8 | 0.00 | 0.00 | 0.00 | 76 | 1020.9 |
| 20260906053536 | 58 | 352 | 4.3 | 7.8 | 0.00 | 0.00 | 0.00 | 76 | 1020.8 |
| 20260906053159 | 58 | 352 | 2.6 | 8.7 | 0.00 | 0.00 | 0.00 | 76 | 1020.7 |
| 20260906052537 | 58 | 352 | 2.6 | 8.7 | 0.00 | 0.00 | 0.00 | 75 | 1020.7 |
| 20260906052040 | 58 | 5 | 4.3 | 8.7 | 0.00 | 0.00 | 0.00 | 75 | 1020.7 |
| 20260906051719 | 58 | 351 | 4.3 | 7.8 | 0.00 | 0.00 | 0.00 | 75 | 1020.7 |
| 20260906051041 | 58 | 9 | 4.3 | 7.8 | 0.00 | 0.00 | 0.00 | 75 | 1020.5 |
| 20260906050526 | 58 | 5 | 3.5 | 7.8 | 0.00 | 0.00 | 0.00 | 74 | 1020.4 |
| 20260906050216 | 59 | 5 | 2.6 | 7.8 | 0.00 | 0.00 | 0.00 | 73 | 1020.2 |
| 20260906045518 | 59 | 348 | 3.5 | 7.8 | 0.00 | 0.00 | 0.00 | 72 | 1020.2 |
| 20260906045030 | 59 | 25 | 4.3 | 7.8 | 0.00 | 0.00 | 0.00 | 72 | 1020.3 |
| 20260906044624 | 60 | 19 | 3.5 | 7.8 | 0.00 | 0.00 | 0.00 | 70 | 1020.2 |
| 20260906044024 | 60 | 352 | 1.7 | 7.0 | 0.00 | 0.00 | 0.00 | 70 | 1020.2 |
| 20260906043524 | 60 | 5 | 3.5 | 7.0 | 0.00 | 0.00 | 0.00 | 70 | 1020.1 |
| 20260906043135 | 60 | 5 | 1.7 | 9.6 | 0.00 | 0.00 | 0.00 | 71 | 1020.1 |
| 20260906042527 | 60 | 352 | 5.2 | 9.6 | 0.00 | 0.00 | 0.00 | 72 | 1020.0 |
| 20260906042042 | 59 | 9 | 4.3 | 7.0 | 0.00 | 0.00 | 0.00 | 72 | 1020.0 |
| 20260906041623 | 59 | 346 | 3.5 | 6.1 | 0.00 | 0.00 | 0.00 | 72 | 1020.0 |
| 20260906041031 | 59 | 15 | 3.5 | 5.2 | 0.00 | 0.00 | 0.00 | 72 | 1020.0 |
| 20260906040537 | 59 | 352 | 2.6 | 5.2 | 0.00 | 0.00 | 0.00 | 72 | 1019.8 |
| 20260906040220 | 59 | 10 | 2.6 | 5.2 | 0.00 | 0.00 | 0.00 | 72 | 1019.8 |
| 20260906035542 | 59 | 11 | 1.7 | 4.3 | 0.00 | 0.00 | 0.00 | 72 | 1019.7 |
| 20260906035035 | 59 | 360 | 2.6 | 4.3 | 0.00 | 0.00 | 0.00 | 72 | 1019.6 |
| 20260906034619 | 60 | 360 | 2.6 | 5.2 | 0.00 | 0.00 | 0.00 | 72 | 1019.5 |
| 20260906034025 | 60 | 360 | 2.6 | 5.2 | 0.00 | 0.00 | 0.00 | 72 | 1019.5 |
| 20260906033531 | 60 | 5 | 2.6 | 7.0 | 0.00 | 0.00 | 0.00 | 71 | 1019.4 |
| 20260906033135 | 60 | 352 | 2.6 | 7.0 | 0.00 | 0.00 | 0.00 | 71 | 1019.3 |
| 20260906032526 | 61 | 13 | 3.5 | 5.2 | 0.00 | 0.00 | 0.00 | 71 | 1019.3 |
| 20260906032033 | 61 | 352 | 3.5 | 8.7 | 0.00 | 0.00 | 0.00 | 71 | 1019.4 |
| 20260906031636 | 61 | 360 | 3.5 | 8.7 | 0.00 | 0.00 | 0.00 | 70 | 1019.2 |
| 20260906031031 | 61 | 22 | 5.2 | 8.7 | 0.00 | 0.00 | 0.00 | 71 | 1019.1 |
| 20260906030524 | 61 | 24 | 2.6 | 7.8 | 0.00 | 0.00 | 0.00 | 70 | 1019.0 |
| 20260906030150 | 61 | 5 | 3.5 | 8.7 | 0.00 | 0.00 | 0.00 | 70 | 1019.0 |
| 20260906025536 | 62 | 360 | 4.3 | 9.6 | 0.00 | 0.00 | 0.00 | 70 | 1018.8 |
| 20260906025036 | 62 | 11 | 6.1 | 9.6 | 0.00 | 0.00 | 0.00 | 69 | 1018.9 |
| 20260906024622 | 62 | 360 | 6.1 | 10.4 | 0.00 | 0.00 | 0.00 | 69 | 1018.8 |
| 20260906024037 | 62 | 342 | 5.2 | 11.3 | 0.00 | 0.00 | 0.00 | 69 | 1018.8 |
| 20260906023531 | 62 | 333 | 7.0 | 12.2 | 0.00 | 0.00 | 0.00 | 68 | 1018.6 |
| 20260906023148 | 63 | 350 | 5.2 | 12.2 | 0.00 | 0.00 | 0.00 | 68 | 1018.7 |
| 20260906022521 | 63 | 360 | 7.0 | 12.2 | 0.00 | 0.00 | 0.00 | 67 | 1018.5 |
| 20260906022043 | 63 | 9 | 7.0 | 12.2 | 0.00 | 0.00 | 0.00 | 66 | 1018.6 |
| 20260906021653 | 63 | 352 | 7.0 | 11.3 | 0.00 | 0.00 | 0.00 | 66 | 1018.6 |
| 20260906021032 | 64 | 352 | 7.0 | 12.2 | 0.00 | 0.00 | 0.00 | 66 | 1018.5 |
| 20260906020529 | 64 | 344 | 7.0 | 12.2 | 0.00 | 0.00 | 0.00 | 65 | 1018.6 |
| 20260906020215 | 64 | 352 | 8.7 | 12.2 | 0.00 | 0.00 | 0.00 | 65 | 1018.5 |
| 20260906015529 | 65 | 352 | 8.7 | 13.0 | 0.00 | 0.00 | 0.00 | 64 | 1018.6 |
| 20260906015030 | 65 | 5 | 8.7 | 13.9 | 0.00 | 0.00 | 0.00 | 63 | 1018.5 |
| 20260906014653 | 65 | 57 | 7.0 | 13.9 | 0.00 | 0.00 | 0.00 | 62 | 1018.4 |
| 20260906014025 | 66 | 350 | 7.0 | 15.6 | 0.00 | 0.00 | 0.00 | 61 | 1018.5 |
| 20260906013532 | 66 | 346 | 8.7 | 15.6 | 0.00 | 0.00 | 0.00 | 58 | 1018.5 |
| 20260906013152 | 67 | 350 | 8.7 | 13.9 | 0.00 | 0.00 | 0.00 | 56 | 1018.4 |
| 20260906012531 | 68 | 5 | 7.0 | 13.0 | 0.00 | 0.00 | 0.00 | 54 | 1018.4 |
| 20260906012042 | 69 | 352 | 6.1 | 13.0 | 0.00 | 0.00 | 0.00 | 52 | 1018.5 |
| 20260906011644 | 69 | 16 | 7.0 | 12.2 | 0.00 | 0.00 | 0.00 | 50 | 1018.5 |
| 20260906011031 | 70 | 360 | 6.1 | 12.2 | 0.00 | 0.00 | 0.00 | 48 | 1018.4 |
| 20260906010535 | 71 | 46 | 7.0 | 12.2 | 0.00 | 0.00 | 0.00 | 47 | 1018.5 |
| 20260906010148 | 71 | 5 | 6.1 | 13.0 | 0.00 | 0.00 | 0.00 | 46 | 1018.4 |
| 20260906005527 | 72 | 342 | 7.0 | 13.0 | 0.00 | 0.00 | 0.00 | 45 | 1018.4 |
| 20260906005025 | 73 | 337 | 5.2 | 10.4 | 0.00 | 0.00 | 0.00 | 44 | 1018.3 |
| 20260906004644 | 73 | 52 | 5.2 | 10.4 | 0.00 | 0.00 | 0.00 | 42 | 1018.4 |
| 20260906004029 | 74 | 332 | 5.2 | 11.3 | 0.00 | 0.00 | 0.00 | 40 | 1018.3 |
| 20260906003535 | 75 | 49 | 4.3 | 13.0 | 0.00 | 0.00 | 0.00 | 38 | 1018.1 |
| 20260906003126 | 76 | 349 | 5.2 | 8.7 | 0.00 | 0.00 | 0.00 | 36 | 1018.0 |
| 20260906002523 | 76 | 21 | 4.3 | 13.0 | 0.00 | 0.00 | 0.00 | 37 | 1018.0 |
| 20260906002050 | 76 | 59 | 6.1 | 13.0 | 0.00 | 0.00 | 0.00 | 36 | 1018.2 |
| 20260906001656 | 76 | 360 | 5.2 | 12.2 | 0.00 | 0.00 | 0.00 | 36 | 1018.1 |
| 20260906001040 | 77 | 352 | 7.0 | 13.0 | 0.00 | 0.00 | 0.00 | 36 | 1018.3 |
| 20260906000526 | 77 | 23 | 5.2 | 13.0 | 0.00 | 0.00 | 0.00 | 35 | 1018.1 |
| 20260906000226 | 78 | 342 | 5.2 | 12.2 | 0.00 | 0.00 | 0.00 | 33 | 1018.0 |
| 20260905235521 | 79 | 67 | 3.5 | 10.4 | 0.00 | 0.00 | 0.00 | 32 | 1018.0 |
| 20260905235039 | 79 | 5 | 1.7 | 7.0 | 0.00 | 0.00 | 0.00 | 32 | 1018.0 |
| 20260905234716 | 79 | 49 | 2.6 | 7.0 | 0.00 | 0.00 | 0.00 | 33 | 1017.9 |
| 20260905234033 | 79 | 43 | 2.6 | 7.0 | 0.00 | 0.00 | 0.00 | 33 | 1017.9 |
| 20260905233539 | 79 | 352 | 1.7 | 7.8 | 0.00 | 0.00 | 0.00 | 33 | 1018.0 |
| 20260905233146 | 79 | 66 | 2.6 | 9.6 | 0.00 | 0.00 | 0.00 | 32 | 1018.0 |
| 20260905232526 | 78 | 72 | 1.7 | 9.6 | 0.00 | 0.00 | 0.00 | 33 | 1018.1 |
| 20260905232026 | 79 | 57 | 2.6 | 8.7 | 0.00 | 0.00 | 0.00 | 32 | 1018.1 |
| 20260905231647 | 79 | 74 | 3.5 | 9.6 | 0.00 | 0.00 | 0.00 | 32 | 1017.9 |
| 20260905231025 | 79 | 50 | 3.5 | 9.6 | 0.00 | 0.00 | 0.00 | 32 | 1018.0 |
| 20260905230539 | 79 | 69 | 0.9 | 5.2 | 0.00 | 0.00 | 0.00 | 32 | 1018.1 |
| 20260905230139 | 79 | 47 | 2.6 | 7.0 | 0.00 | 0.00 | 0.00 | 32 | 1018.0 |
| 20260905225522 | 79 | 73 | 1.7 | 5.2 | 0.00 | 0.00 | 0.00 | 32 | 1018.0 |
| 20260905225024 | 79 | 352 | 1.7 | 8.7 | 0.00 | 0.00 | 0.00 | 32 | 1018.0 |
| 20260905224633 | 78 | 64 | 3.5 | 8.7 | 0.00 | 0.00 | 0.00 | 32 | 1018.0 |